Weather History for Lumberton, NC

Change the Weather History Date:

Monday, September 16, 2013

  Actual Average Record
Temperature  
Mean Temperature 77 °F 73 °F  
Max Temperature 89 °F 84 °F 94 °F (2005)
Min Temperature 65 °F 62 °F 48 °F (2000)
Degree Days  
Heating Degree Days 0 0  
Month to date heating degree days 0 0  
Since 1 July heating degree days 0 0  
Cooling Degree Days 12 8  
Month to date cooling degree days 206 159  
Year to date cooling degree days 1717 1731  
Growing Degree Days 26 (Base 50)    
Moisture  
Dew Point 67 °F    
Average Humidity 73    
Maximum Humidity 100    
Minimum Humidity 45    
Precipitation  
Precipitation 0.00 in 0.16 in 0.79 in (2008)
Month to date precipitation 0.89 2.65  
Year to date precipitation 36.87 33.04  
Sea Level Pressure  
Sea Level Pressure 30.10 in    
Wind  
Wind Speed 4 mph (NNW)    
Max Wind Speed 16 mph    
Max Gust Speed 22 mph    
Visibility 7 miles    
Events      
T = Trace of Precipitation, MM = Missing Value Source: NWS Daily Summary

Daily Weather History Graph

Daily Weather History Graph

Search for Another Location

Airport:

Trip Planner

Search our weather history database for the weather conditions in past years. The results will help you decide how hot, cold, wet, or windy it might be!

Date:

Astronomy

Sep. 16, 2013 Rise Set
Actual Time 7:00 AM EDT 7:21 PM EDT
Civil Twilight 6:34 AM EDT 7:46 PM EDT
Nautical Twilight 6:05 AM EDT 8:15 PM EDT
Astronomical Twilight 5:35 AM EDT 8:45 PM EDT
Moon 5:24 PM EDT (9/16) 3:50 AM EDT (9/16)
Length of Visible Light 13h 11m
Length of Day
12h 21m
Waxing Gibbous, 90% of the Moon is Illuminated
Sep 16
Waxing Gibbous
Sep 19
Full
Sep 26
Last Quarter
Oct 4
New
Oct 11
First Quarter

Hourly Weather History & Observations

Time (EDT) Temp. Heat Index Dew Point Humidity Pressure Visibility Wind Dir Wind Speed Gust Speed Precip Events Conditions
12:54 AM 68.0 °F - 66.0 °F 93% 30.13 in 9.0 mi ESE 3.5 mph - N/A   Clear
1:54 AM 68.0 °F - 66.9 °F 96% 30.13 in 6.0 mi Calm Calm - N/A   Clear
2:54 AM 66.9 °F - 66.0 °F 97% 30.12 in 6.0 mi Calm Calm - N/A   Clear
3:54 AM 66.0 °F - 64.9 °F 96% 30.11 in 5.0 mi Calm Calm - N/A   Clear
4:54 AM 68.0 °F - 66.0 °F 93% 30.11 in 6.0 mi Calm Calm - N/A   Mostly Cloudy
5:54 AM 66.9 °F - 64.9 °F 93% 30.11 in 5.0 mi Calm Calm - N/A   Clear
6:45 AM 66.2 °F - 64.4 °F 94% 30.11 in 2.5 mi Calm Calm - N/A   Partly Cloudy
6:47 AM 64.4 °F - 64.4 °F 100% 30.11 in 1.2 mi Calm Calm - N/A   Scattered Clouds
6:50 AM 66.2 °F - 64.4 °F 94% 30.11 in 0.8 mi Calm Calm - N/A   Scattered Clouds
6:54 AM 66.0 °F - 64.9 °F 96% 30.12 in 0.8 mi Calm Calm - N/A   Mostly Cloudy
6:56 AM 66.2 °F - 64.4 °F 94% 30.12 in 1.0 mi Calm Calm - N/A   Mostly Cloudy
6:59 AM 66.2 °F - 64.4 °F 94% 30.12 in 1.8 mi Calm Calm - N/A   Mostly Cloudy
7:01 AM 66.2 °F - 64.4 °F 94% 30.12 in 3.0 mi Calm Calm - N/A   Mostly Cloudy
7:16 AM 66.2 °F - 64.4 °F 94% 30.12 in 6.0 mi Calm Calm - N/A   Mostly Cloudy
7:54 AM 69.1 °F - 66.9 °F 93% 30.12 in 4.0 mi Calm Calm - N/A   Partly Cloudy
8:54 AM 73.9 °F - 71.1 °F 91% 30.12 in 9.0 mi Calm Calm - N/A   Clear
9:54 AM 78.1 °F - 72.0 °F 81% 30.12 in 9.0 mi SW 4.6 mph - N/A   Clear
10:31 AM 80.6 °F 85.4 °F 73.4 °F 79% 30.13 in 10.0 mi West 9.2 mph - N/A   Mostly Cloudy
10:54 AM 82.0 °F 86.7 °F 72.0 °F 71% 30.12 in 10.0 mi WNW 5.8 mph - N/A   Scattered Clouds
11:31 AM 82.4 °F 87.2 °F 71.6 °F 70% 30.12 in 10.0 mi WNW 10.4 mph - N/A   Mostly Cloudy
11:41 AM 82.4 °F 87.2 °F 71.6 °F 70% 30.12 in 10.0 mi WNW 8.1 mph - N/A   Scattered Clouds
11:54 AM 84.0 °F 89.0 °F 71.1 °F 65% 30.12 in 10.0 mi WNW 9.2 mph - N/A   Partly Cloudy
12:54 PM 86.0 °F 92.2 °F 72.0 °F 63% 30.09 in 10.0 mi NW 8.1 mph - N/A   Scattered Clouds
1:54 PM 88.0 °F 92.9 °F 70.0 °F 55% 30.07 in 10.0 mi Variable 5.8 mph - N/A   Partly Cloudy
2:54 PM 87.1 °F 89.9 °F 66.9 °F 51% 30.04 in 10.0 mi NW 4.6 mph - N/A   Scattered Clouds
3:54 PM 88.0 °F 90.7 °F 66.9 °F 49% 30.02 in 10.0 mi Variable 3.5 mph - N/A   Partly Cloudy
4:54 PM 87.1 °F 88.9 °F 64.9 °F 48% 30.03 in 10.0 mi North 8.1 mph - N/A   Mostly Cloudy
5:54 PM 86.0 °F 86.8 °F 63.0 °F 46% 30.03 in 10.0 mi NNW 3.5 mph - N/A   Mostly Cloudy
6:54 PM 82.9 °F 84.6 °F 64.9 °F 54% 30.04 in 10.0 mi ENE 3.5 mph - N/A   Partly Cloudy
7:54 PM 81.0 °F 82.5 °F 64.0 °F 56% 30.06 in 10.0 mi ENE 4.6 mph - N/A   Overcast
8:54 PM 77.0 °F - 64.9 °F 66% 30.09 in 10.0 mi Calm Calm - N/A   Mostly Cloudy
9:54 PM 78.1 °F - 63.0 °F 60% 30.12 in 10.0 mi NE 10.4 mph - N/A   Scattered Clouds
10:54 PM 75.9 °F - 62.1 °F 62% 30.12 in 10.0 mi NE 8.1 mph - N/A   Clear
11:54 PM 75.0 °F - 63.0 °F 66% 30.14 in 10.0 mi NE 6.9 mph - N/A   Mostly Cloudy